Year,Month,Day,Hour,Minute,Value (Times are PST for temperature in C)
2008,01,22,00,00,-0.70
2008,01,22,00,01,-0.70
2008,01,22,00,02,-0.70
2008,01,22,00,03,-0.70
2008,01,22,00,04,-0.70
2008,01,22,00,05,-0.70
2008,01,22,00,06,-0.70
2008,01,22,00,07,-0.70
2008,01,22,00,08,-0.70
2008,01,22,00,09,-0.70
2008,01,22,00,10,-0.70
2008,01,22,00,11,-0.60
2008,01,22,00,12,-0.60
2008,01,22,00,13,-0.60
2008,01,22,00,14,-0.60
2008,01,22,00,15,-0.60
2008,01,22,00,16,-0.60
2008,01,22,00,17,-0.60
2008,01,22,00,18,-0.60
2008,01,22,00,19,-0.60
2008,01,22,00,20,-0.70
2008,01,22,00,21,-0.70
2008,01,22,00,22,-0.70
2008,01,22,00,23,-0.80
2008,01,22,00,24,-0.80
2008,01,22,00,25,-0.70
2008,01,22,00,26,-0.70
2008,01,22,00,27,-0.70
2008,01,22,00,28,-0.70
2008,01,22,00,29,-0.70
2008,01,22,00,30,-0.70
2008,01,22,00,31,-0.70
2008,01,22,00,32,-0.70
2008,01,22,00,33,-0.70
2008,01,22,00,34,-0.70
2008,01,22,00,35,-0.70
2008,01,22,00,36,-0.70
2008,01,22,00,37,-0.70
2008,01,22,00,38,-0.70
2008,01,22,00,39,-0.70
2008,01,22,00,40,-0.70
2008,01,22,00,41,-0.60
2008,01,22,00,42,-0.60
2008,01,22,00,43,-0.60
2008,01,22,00,44,-0.60
2008,01,22,00,45,-0.60
2008,01,22,00,46,-0.60
2008,01,22,00,47,-0.70
2008,01,22,00,48,-0.70
2008,01,22,00,49,-0.70
2008,01,22,00,50,-0.70
2008,01,22,00,51,-0.70
2008,01,22,00,52,-0.70
2008,01,22,00,53,-0.70
2008,01,22,00,54,-0.60
2008,01,22,00,55,-0.60
2008,01,22,00,56,-0.60
2008,01,22,00,57,-0.60
2008,01,22,00,58,-0.60
2008,01,22,00,59,-0.60
2008,01,22,01,00,-0.60
2008,01,22,01,01,-0.60
2008,01,22,01,02,-0.60
2008,01,22,01,03,-0.60
2008,01,22,01,04,-0.60
2008,01,22,01,05,-0.70
2008,01,22,01,06,-0.70
2008,01,22,01,07,-0.70
2008,01,22,01,08,-0.70
2008,01,22,01,09,-0.80
2008,01,22,01,10,-0.80
2008,01,22,01,11,-0.80
2008,01,22,01,12,-0.80
2008,01,22,01,13,-0.80
2008,01,22,01,14,-0.80
2008,01,22,01,15,-0.80
2008,01,22,01,16,-0.80
2008,01,22,01,17,-0.80
2008,01,22,01,18,-0.90
2008,01,22,01,19,-0.90
2008,01,22,01,20,-0.90
2008,01,22,01,21,-0.90
2008,01,22,01,22,-0.90
2008,01,22,01,23,-0.90
2008,01,22,01,24,-0.90
2008,01,22,01,25,-0.90
2008,01,22,01,26,-0.90
2008,01,22,01,27,-0.90
2008,01,22,01,28,-0.90
2008,01,22,01,29,-0.90
2008,01,22,01,30,-0.90
2008,01,22,01,31,-0.90
2008,01,22,01,32,-0.90
2008,01,22,01,33,-0.90
2008,01,22,01,34,-1.10
2008,01,22,01,35,-1.10
2008,01,22,01,36,-1.10
2008,01,22,01,37,-1.10
2008,01,22,01,38,-1.10
2008,01,22,01,39,-1.10
2008,01,22,01,40,-1.10
2008,01,22,01,41,-1.10
2008,01,22,01,42,-1.10
2008,01,22,01,43,-1.10
2008,01,22,01,44,-1.10
2008,01,22,01,45,-1.10
2008,01,22,01,46,-1.10
2008,01,22,01,47,-1.10
2008,01,22,01,48,-1.10
2008,01,22,01,49,-1.10
2008,01,22,01,50,-1.00
2008,01,22,01,51,-0.90
2008,01,22,01,52,-0.90
2008,01,22,01,53,-0.90
2008,01,22,01,54,-0.90
2008,01,22,01,55,-0.90
2008,01,22,01,56,-0.90
2008,01,22,01,57,-0.90
2008,01,22,01,58,-0.90
2008,01,22,01,59,-0.90
2008,01,22,02,00,-0.80
2008,01,22,02,01,-0.80
2008,01,22,02,02,-0.80
2008,01,22,02,03,-0.70
2008,01,22,02,04,-0.70
2008,01,22,02,05,-0.70
2008,01,22,02,06,-0.70
2008,01,22,02,07,-0.70
2008,01,22,02,08,-0.70
2008,01,22,02,09,-0.80
2008,01,22,02,10,-0.80
2008,01,22,02,11,-0.80
2008,01,22,02,12,-0.80
2008,01,22,02,13,-0.80
2008,01,22,02,14,-0.80
2008,01,22,02,15,-0.80
2008,01,22,02,16,-0.80
2008,01,22,02,17,-0.80
2008,01,22,02,18,-0.80
2008,01,22,02,19,-0.80
2008,01,22,02,20,-0.80
2008,01,22,02,21,-0.80
2008,01,22,02,22,-0.70
2008,01,22,02,23,-0.70
2008,01,22,02,24,-0.70
2008,01,22,02,25,-0.70
2008,01,22,02,26,-0.70
2008,01,22,02,27,-0.70
2008,01,22,02,28,-0.70
2008,01,22,02,29,-0.70
2008,01,22,02,30,-0.70
2008,01,22,02,31,-0.70
2008,01,22,02,32,-0.70
2008,01,22,02,33,-0.80
2008,01,22,02,34,-0.80
2008,01,22,02,35,-0.80
2008,01,22,02,36,-0.80
2008,01,22,02,37,-0.90
2008,01,22,02,38,-0.90
2008,01,22,02,39,-0.80
2008,01,22,02,40,-0.80
2008,01,22,02,41,-0.80
2008,01,22,02,42,-0.80
2008,01,22,02,43,-0.80
2008,01,22,02,44,-0.80
2008,01,22,02,45,-0.90
2008,01,22,02,46,-0.90
2008,01,22,02,47,-0.90
2008,01,22,02,48,-0.80
2008,01,22,02,49,-0.80
2008,01,22,02,50,-0.80
2008,01,22,02,51,-0.80
2008,01,22,02,52,-0.80
2008,01,22,02,53,-0.80
2008,01,22,02,54,-0.80
2008,01,22,02,55,-0.80
2008,01,22,02,56,-0.90
2008,01,22,02,57,-0.90
2008,01,22,02,58,-0.90
2008,01,22,02,59,-0.90
2008,01,22,03,00,-0.90
2008,01,22,03,01,-0.90
2008,01,22,03,02,-0.90
2008,01,22,03,03,-0.90
2008,01,22,03,04,-1.00
2008,01,22,03,05,-1.10
2008,01,22,03,06,-1.10
2008,01,22,03,07,-1.10
2008,01,22,03,08,-1.10
2008,01,22,03,09,-1.10
2008,01,22,03,10,-1.10
2008,01,22,03,11,-1.10
2008,01,22,03,12,-1.10
2008,01,22,03,13,-1.10
2008,01,22,03,14,-1.10
2008,01,22,03,15,-1.10
2008,01,22,03,16,-1.10
2008,01,22,03,17,-1.10
2008,01,22,03,18,-1.10
2008,01,22,03,19,-1.10
2008,01,22,03,20,-1.10
2008,01,22,03,21,-1.10
2008,01,22,03,22,-1.10
2008,01,22,03,23,-1.10
2008,01,22,03,24,-1.10
2008,01,22,03,25,-1.10
2008,01,22,03,26,-1.10
2008,01,22,03,27,-1.10
2008,01,22,03,28,-1.10
2008,01,22,03,29,-1.10
2008,01,22,03,30,-1.10
2008,01,22,03,31,-1.10
2008,01,22,03,32,-1.10
2008,01,22,03,33,-1.10
2008,01,22,03,34,-1.10
2008,01,22,03,35,-1.10
2008,01,22,03,36,-1.10
2008,01,22,03,37,-1.10
2008,01,22,03,38,-1.10
2008,01,22,03,39,-1.10
2008,01,22,03,40,-1.10
2008,01,22,03,41,-1.10
2008,01,22,03,42,-1.10
2008,01,22,03,43,-0.90
2008,01,22,03,44,-0.90
2008,01,22,03,45,-0.90
2008,01,22,03,46,-0.90
2008,01,22,03,47,-0.90
2008,01,22,03,48,-0.90
2008,01,22,03,49,-0.90
2008,01,22,03,50,-0.90
2008,01,22,03,51,-0.90
2008,01,22,03,52,-0.90
2008,01,22,03,53,-0.90
2008,01,22,03,54,-0.90
2008,01,22,03,55,-0.90
2008,01,22,03,56,-0.90
2008,01,22,03,57,-0.90
2008,01,22,03,58,-0.90
2008,01,22,03,59,-0.90
2008,01,22,04,00,-0.90
2008,01,22,04,01,-0.90
2008,01,22,04,02,-0.90
2008,01,22,04,03,-0.90
2008,01,22,04,04,-0.90
2008,01,22,04,05,-0.90
2008,01,22,04,06,-0.90
2008,01,22,04,07,-0.90
2008,01,22,04,08,-0.90
2008,01,22,04,09,-0.90
2008,01,22,04,10,-0.90
2008,01,22,04,11,-0.90
2008,01,22,04,12,-0.90
2008,01,22,04,13,-0.90
2008,01,22,04,14,-0.90
2008,01,22,04,15,-0.90
2008,01,22,04,16,-0.90
2008,01,22,04,17,-0.90
2008,01,22,04,18,-0.90
2008,01,22,04,19,-0.90
2008,01,22,04,20,-0.90
2008,01,22,04,21,-0.90
2008,01,22,04,22,-0.90
2008,01,22,04,23,-0.90
2008,01,22,04,24,-0.90
2008,01,22,04,25,-0.90
2008,01,22,04,26,-0.90
2008,01,22,04,27,-0.90
2008,01,22,04,28,-0.90
2008,01,22,04,29,-0.90
2008,01,22,04,30,-0.90
2008,01,22,04,31,-0.90
2008,01,22,04,32,-0.90
2008,01,22,04,33,-0.90
2008,01,22,04,34,-0.90
2008,01,22,04,35,-0.90
2008,01,22,04,36,-0.90
2008,01,22,04,37,-0.90
2008,01,22,04,38,-0.90
2008,01,22,04,39,-0.90
2008,01,22,04,40,-0.90
2008,01,22,04,41,-0.90
2008,01,22,04,42,-1.00
2008,01,22,04,43,-1.10
2008,01,22,04,44,-1.10
2008,01,22,04,45,-1.10
2008,01,22,04,46,-1.10
2008,01,22,04,47,-1.10
2008,01,22,04,48,-1.10
2008,01,22,04,49,-1.10
2008,01,22,04,50,-1.20
2008,01,22,04,51,-1.20
2008,01,22,04,52,-1.30
2008,01,22,04,53,-1.30
2008,01,22,04,54,-1.40
2008,01,22,04,55,-1.40
2008,01,22,04,56,-1.40
2008,01,22,04,57,-1.40
2008,01,22,04,58,-1.40
2008,01,22,04,59,-1.40
2008,01,22,05,00,-1.40
2008,01,22,05,01,-1.40
2008,01,22,05,02,-1.40
2008,01,22,05,03,-1.40
2008,01,22,05,04,-1.40
2008,01,22,05,05,-1.40
2008,01,22,05,06,-1.40
2008,01,22,05,07,-1.40
2008,01,22,05,08,-1.40
2008,01,22,05,09,-1.40
2008,01,22,05,10,-1.40
2008,01,22,05,11,-1.40
2008,01,22,05,12,-1.40
2008,01,22,05,13,-1.30
2008,01,22,05,14,-1.30
2008,01,22,05,15,-1.30
2008,01,22,05,16,-1.20
2008,01,22,05,17,-1.20
2008,01,22,05,18,-1.20
2008,01,22,05,19,-1.20
2008,01,22,05,20,-1.10
2008,01,22,05,21,-1.10
2008,01,22,05,22,-1.10
2008,01,22,05,23,-1.10
2008,01,22,05,24,-1.10
2008,01,22,05,25,-1.20
2008,01,22,05,26,-1.20
2008,01,22,05,27,-1.30
2008,01,22,05,28,-1.30
2008,01,22,05,29,-1.40
2008,01,22,05,30,-1.40
2008,01,22,05,31,-1.40
2008,01,22,05,32,-1.40
2008,01,22,05,33,-1.40
2008,01,22,05,34,-1.40
2008,01,22,05,35,-1.40
2008,01,22,05,36,-1.40
2008,01,22,05,37,-1.40
2008,01,22,05,38,-1.40
2008,01,22,05,39,-1.40
2008,01,22,05,40,-1.40
2008,01,22,05,41,-1.40
2008,01,22,05,42,-1.40
2008,01,22,05,43,-1.40
2008,01,22,05,44,-1.40
2008,01,22,05,45,-1.40
2008,01,22,05,46,-1.40
2008,01,22,05,47,-1.40
2008,01,22,05,48,-1.40
2008,01,22,05,49,-1.40
2008,01,22,05,50,-1.40
2008,01,22,05,51,-1.40
2008,01,22,05,52,-1.40
2008,01,22,05,53,-1.40
2008,01,22,05,54,-1.40
2008,01,22,05,55,-1.40
2008,01,22,05,56,-1.40
2008,01,22,05,57,-1.40
2008,01,22,05,58,-1.40
2008,01,22,05,59,-1.40
2008,01,22,06,00,-1.40
2008,01,22,06,01,-1.40
2008,01,22,06,02,-1.40
2008,01,22,06,03,-1.40
2008,01,22,06,04,-1.40
2008,01,22,06,05,-1.40
2008,01,22,06,06,-1.40
2008,01,22,06,07,-1.40
2008,01,22,06,08,-1.40
2008,01,22,06,09,-1.40
2008,01,22,06,10,-1.40
2008,01,22,06,11,-1.30
2008,01,22,06,12,-1.30
2008,01,22,06,13,-1.30
2008,01,22,06,14,-1.30
2008,01,22,06,15,-1.20
2008,01,22,06,16,-1.20
2008,01,22,06,17,-1.20
2008,01,22,06,18,-1.20
2008,01,22,06,19,-1.20
2008,01,22,06,20,-1.10
2008,01,22,06,21,-1.10
2008,01,22,06,22,-1.10
2008,01,22,06,23,-1.10
2008,01,22,06,24,-1.10
2008,01,22,06,25,-1.10
2008,01,22,06,26,-1.10
2008,01,22,06,27,-1.10
2008,01,22,06,28,-1.10
2008,01,22,06,29,-1.10
2008,01,22,06,30,-1.10
2008,01,22,06,31,-1.10
2008,01,22,06,32,-1.10
2008,01,22,06,33,-1.10
2008,01,22,06,34,-1.10
2008,01,22,06,35,-1.10
2008,01,22,06,36,-1.10
2008,01,22,06,37,-1.10
2008,01,22,06,38,-1.10
2008,01,22,06,39,-1.10
2008,01,22,06,40,-1.10
2008,01,22,06,41,-1.10
2008,01,22,06,42,-1.10
2008,01,22,06,43,-1.10
2008,01,22,06,44,-1.10
2008,01,22,06,45,-1.10
2008,01,22,06,46,-1.10
2008,01,22,06,47,-1.10
2008,01,22,06,48,-1.20
2008,01,22,06,49,-1.20
2008,01,22,06,50,-1.20
2008,01,22,06,51,-1.30
2008,01,22,06,52,-1.30
2008,01,22,06,53,-1.30
2008,01,22,06,54,-1.40
2008,01,22,06,55,-1.40
2008,01,22,06,56,-1.40
2008,01,22,06,57,-1.40
2008,01,22,06,58,-1.30
2008,01,22,06,59,-1.30
2008,01,22,07,00,-1.30
2008,01,22,07,01,-1.30
2008,01,22,07,02,-1.30
2008,01,22,07,03,-1.30
2008,01,22,07,04,-1.30
2008,01,22,07,05,-1.30
2008,01,22,07,06,-1.30
2008,01,22,07,07,-1.30
2008,01,22,07,08,-1.30
2008,01,22,07,09,-1.30
2008,01,22,07,10,-1.30
2008,01,22,07,11,-1.30
2008,01,22,07,12,-1.40
2008,01,22,07,13,-1.40
2008,01,22,07,14,-1.40
2008,01,22,07,15,-1.40
2008,01,22,07,16,-1.40
2008,01,22,07,17,-1.50
2008,01,22,07,18,-1.50
2008,01,22,07,19,-1.50
2008,01,22,07,20,-1.50
2008,01,22,07,21,-1.60
2008,01,22,07,22,-1.60
2008,01,22,07,23,-1.60
2008,01,22,07,24,-1.60
2008,01,22,07,25,-1.50
2008,01,22,07,26,-1.50
2008,01,22,07,27,-1.50
2008,01,22,07,28,-1.40
2008,01,22,07,29,-1.40
2008,01,22,07,30,-1.40
2008,01,22,07,31,-1.40
2008,01,22,07,32,-1.40
2008,01,22,07,33,-1.40
2008,01,22,07,34,-1.40
2008,01,22,07,35,-1.40
2008,01,22,07,36,-1.40
2008,01,22,07,37,-1.40
2008,01,22,07,38,-1.40
2008,01,22,07,39,-1.50
2008,01,22,07,40,-1.50
2008,01,22,07,41,-1.50
2008,01,22,07,42,-1.50
2008,01,22,07,43,-1.50
2008,01,22,07,44,-1.60
2008,01,22,07,45,-1.60
2008,01,22,07,46,-1.70
2008,01,22,07,47,-1.70
2008,01,22,07,48,-1.80
2008,01,22,07,49,-1.80
2008,01,22,07,50,-1.80
2008,01,22,07,51,-1.80
2008,01,22,07,52,-1.80
2008,01,22,07,53,-1.80
2008,01,22,07,54,-1.80
2008,01,22,07,55,-1.80
2008,01,22,07,56,-1.80
2008,01,22,07,57,-1.80
2008,01,22,07,58,-1.80
2008,01,22,07,59,-1.80
2008,01,22,08,00,-1.80
2008,01,22,08,01,-1.80
2008,01,22,08,02,-1.80
2008,01,22,08,03,-1.80
2008,01,22,08,04,-1.80
2008,01,22,08,05,-1.80
2008,01,22,08,06,-1.80
2008,01,22,08,07,-1.80
2008,01,22,08,08,-1.80
2008,01,22,08,09,-1.80
2008,01,22,08,10,-1.80
2008,01,22,08,11,-1.80
2008,01,22,08,12,-1.80
2008,01,22,08,13,-1.80
2008,01,22,08,14,-1.80
2008,01,22,08,15,-1.80
2008,01,22,08,16,-1.80
2008,01,22,08,17,-1.80
2008,01,22,08,18,-1.80
2008,01,22,08,19,-1.80
2008,01,22,08,20,-1.80
2008,01,22,08,21,-1.80
2008,01,22,08,22,-1.80
2008,01,22,08,23,-1.80
2008,01,22,08,24,-1.80
2008,01,22,08,25,-1.80
2008,01,22,08,26,-1.80
2008,01,22,08,27,-1.80
2008,01,22,08,28,-1.80
2008,01,22,08,29,-1.70
2008,01,22,08,30,-1.70
2008,01,22,08,31,-1.70
2008,01,22,08,32,-1.70
2008,01,22,08,33,-1.70
2008,01,22,08,34,-1.60
2008,01,22,08,35,-1.60
2008,01,22,08,36,-1.60
2008,01,22,08,37,-1.50
2008,01,22,08,38,-1.50
2008,01,22,08,39,-1.50
2008,01,22,08,40,-1.40
2008,01,22,08,41,-1.40
2008,01,22,08,42,-1.40
2008,01,22,08,43,-1.40
2008,01,22,08,44,-1.40
2008,01,22,08,45,-1.30
2008,01,22,08,46,-1.30
2008,01,22,08,47,-1.30
2008,01,22,08,48,-1.20
2008,01,22,08,49,-1.20
2008,01,22,08,50,-1.20
2008,01,22,08,51,-1.10
2008,01,22,08,52,-1.10
2008,01,22,08,53,-1.10
2008,01,22,08,54,-1.10
2008,01,22,08,55,-1.10
2008,01,22,08,56,-1.10
2008,01,22,08,57,-1.10
2008,01,22,08,58,-1.00
2008,01,22,08,59,-0.90
2008,01,22,09,00,-0.90
2008,01,22,09,01,-0.90
2008,01,22,09,02,-0.90
2008,01,22,09,03,-0.80
2008,01,22,09,04,-0.80
2008,01,22,09,05,-0.70
2008,01,22,09,06,-0.70
2008,01,22,09,07,-0.60
2008,01,22,09,08,-0.60
2008,01,22,09,09,-0.50
2008,01,22,09,10,-0.40
2008,01,22,09,11,-0.40
2008,01,22,09,12,-0.30
2008,01,22,09,13,-0.30
2008,01,22,09,14,-0.20
2008,01,22,09,15,-0.10
2008,01,22,09,16,-0.10
2008,01,22,09,17,-0.10
2008,01,22,09,18,0.00
2008,01,22,09,19,0.10
2008,01,22,09,20,0.10
2008,01,22,09,21,0.10
2008,01,22,09,22,0.10
2008,01,22,09,23,0.20
2008,01,22,09,24,0.30
2008,01,22,09,25,0.40
2008,01,22,09,26,0.40
2008,01,22,09,27,0.40
2008,01,22,09,28,0.40
2008,01,22,09,29,0.50
2008,01,22,09,30,0.50
2008,01,22,09,31,0.60
2008,01,22,09,32,0.60
2008,01,22,09,33,0.60
2008,01,22,09,34,0.70
2008,01,22,09,35,0.80
2008,01,22,09,36,0.80
2008,01,22,09,37,0.90
2008,01,22,09,38,1.00
2008,01,22,09,39,1.00
2008,01,22,09,40,1.10
2008,01,22,09,41,1.20
2008,01,22,09,42,1.30
2008,01,22,09,43,1.30
2008,01,22,09,44,1.30
2008,01,22,09,45,1.30
2008,01,22,09,46,1.30
2008,01,22,09,47,1.30
2008,01,22,09,48,1.30
2008,01,22,09,49,1.30
2008,01,22,09,50,1.40
2008,01,22,09,51,1.50
2008,01,22,09,52,1.50
2008,01,22,09,53,1.60
2008,01,22,09,54,1.70
2008,01,22,09,55,1.70
2008,01,22,09,56,1.70
2008,01,22,09,57,1.70
2008,01,22,09,58,1.70
2008,01,22,09,59,1.70
2008,01,22,10,00,1.70
2008,01,22,10,01,1.80
2008,01,22,10,02,1.80
2008,01,22,10,03,1.80
2008,01,22,10,04,1.80
2008,01,22,10,05,1.80
2008,01,22,10,06,1.80
2008,01,22,10,07,1.80
2008,01,22,10,08,1.80
2008,01,22,10,09,1.80
2008,01,22,10,10,1.80
2008,01,22,10,11,1.80
2008,01,22,10,12,1.80
2008,01,22,10,13,1.90
2008,01,22,10,14,1.90
2008,01,22,10,15,1.90
2008,01,22,10,16,2.00
2008,01,22,10,17,2.10
2008,01,22,10,18,2.10
2008,01,22,10,19,2.20
2008,01,22,10,20,2.20
2008,01,22,10,21,2.20
2008,01,22,10,22,2.20
2008,01,22,10,23,2.20
2008,01,22,10,24,2.20
2008,01,22,10,25,2.20
2008,01,22,10,26,2.20
2008,01,22,10,27,2.20
2008,01,22,10,28,2.30
2008,01,22,10,29,2.30
2008,01,22,10,30,2.30
2008,01,22,10,31,2.30
2008,01,22,10,32,2.30
2008,01,22,10,33,2.40
2008,01,22,10,34,2.40
2008,01,22,10,35,2.40
2008,01,22,10,36,2.40
2008,01,22,10,37,2.50
2008,01,22,10,38,2.40
2008,01,22,10,39,2.40
2008,01,22,10,40,2.40
2008,01,22,10,41,2.40
2008,01,22,10,42,2.40
2008,01,22,10,43,2.40
2008,01,22,10,44,2.30
2008,01,22,10,45,2.30
2008,01,22,10,46,2.40
2008,01,22,10,47,2.40
2008,01,22,10,48,2.40
2008,01,22,10,49,2.40
2008,01,22,10,50,2.50
2008,01,22,10,51,2.50
2008,01,22,10,52,2.50
2008,01,22,10,53,2.60
2008,01,22,10,54,2.60
2008,01,22,10,55,2.60
2008,01,22,10,56,2.60
2008,01,22,10,57,2.60
2008,01,22,10,58,2.60
2008,01,22,10,59,2.70
2008,01,22,11,00,2.70
2008,01,22,11,01,2.70
2008,01,22,11,02,2.80
2008,01,22,11,03,2.80
2008,01,22,11,04,2.80
2008,01,22,11,05,2.80
2008,01,22,11,06,2.90
2008,01,22,11,07,2.90
2008,01,22,11,08,2.90
2008,01,22,11,09,2.90
2008,01,22,11,10,2.90
2008,01,22,11,11,2.80
2008,01,22,11,12,2.70
2008,01,22,11,13,2.70
2008,01,22,11,14,2.70
2008,01,22,11,15,2.70
2008,01,22,11,16,2.70
2008,01,22,11,17,2.70
2008,01,22,11,18,2.70
2008,01,22,11,19,2.70
2008,01,22,11,20,2.80
2008,01,22,11,21,2.80
2008,01,22,11,22,2.90
2008,01,22,11,23,2.80
2008,01,22,11,24,2.80
2008,01,22,11,25,2.90
2008,01,22,11,26,2.90
2008,01,22,11,27,2.90
2008,01,22,11,28,2.90
2008,01,22,11,29,2.90
2008,01,22,11,30,2.90
2008,01,22,11,31,2.90
2008,01,22,11,32,2.90
2008,01,22,11,33,2.90
2008,01,22,11,34,2.90
2008,01,22,11,35,2.90
2008,01,22,11,36,2.90
2008,01,22,11,37,2.90
2008,01,22,11,38,2.90
2008,01,22,11,39,2.80
2008,01,22,11,40,2.80
2008,01,22,11,41,2.80
2008,01,22,11,42,2.80
2008,01,22,11,43,2.90
2008,01,22,11,44,2.90
2008,01,22,11,45,3.00
2008,01,22,11,46,3.10
2008,01,22,11,47,3.20
2008,01,22,11,48,3.20
2008,01,22,11,49,3.20
2008,01,22,11,50,3.10
2008,01,22,11,51,3.20
2008,01,22,11,52,3.20
2008,01,22,11,53,3.20
2008,01,22,11,54,3.10
2008,01,22,11,55,3.10
2008,01,22,11,56,3.10
2008,01,22,11,57,3.10
2008,01,22,11,58,3.10
2008,01,22,11,59,3.10
2008,01,22,12,00,3.10
2008,01,22,12,01,3.20
2008,01,22,12,02,3.20
2008,01,22,12,03,3.20
2008,01,22,12,04,3.30
2008,01,22,12,05,3.30
2008,01,22,12,06,3.30
2008,01,22,12,07,3.20
2008,01,22,12,08,3.20
2008,01,22,12,09,3.20
2008,01,22,12,10,3.20
2008,01,22,12,11,3.20
2008,01,22,12,12,3.20
2008,01,22,12,13,3.20
2008,01,22,12,14,3.10
2008,01,22,12,15,3.20
2008,01,22,12,16,3.20
2008,01,22,12,17,3.20
2008,01,22,12,18,3.30
2008,01,22,12,19,3.30
2008,01,22,12,20,3.30
2008,01,22,12,21,3.30
2008,01,22,12,22,3.20
2008,01,22,12,23,3.20
2008,01,22,12,24,3.20
2008,01,22,12,25,3.20
2008,01,22,12,26,3.20
2008,01,22,12,27,3.20
2008,01,22,12,28,3.20
2008,01,22,12,29,3.20
2008,01,22,12,30,3.20
2008,01,22,12,31,3.20
2008,01,22,12,32,3.20
2008,01,22,12,33,3.20
2008,01,22,12,34,3.20
2008,01,22,12,35,3.20
2008,01,22,12,36,3.30
2008,01,22,12,37,3.30
2008,01,22,12,38,3.30
2008,01,22,12,39,3.30
2008,01,22,12,40,3.30
2008,01,22,12,41,3.30
2008,01,22,12,42,3.30
2008,01,22,12,43,3.30
2008,01,22,12,44,3.30
2008,01,22,12,45,3.30
2008,01,22,12,46,3.30
2008,01,22,12,47,3.30
2008,01,22,12,48,3.40
2008,01,22,12,49,3.30
2008,01,22,12,50,3.30
2008,01,22,12,51,3.30
2008,01,22,12,52,3.30
2008,01,22,12,53,3.30
2008,01,22,12,54,3.30
2008,01,22,12,55,3.30
2008,01,22,12,56,3.40
2008,01,22,12,57,3.50
2008,01,22,12,58,3.50
2008,01,22,12,59,3.50
2008,01,22,13,00,3.60
2008,01,22,13,01,3.60
2008,01,22,13,02,3.70
2008,01,22,13,03,3.80
2008,01,22,13,04,3.80
2008,01,22,13,05,3.70
2008,01,22,13,06,3.70
2008,01,22,13,07,3.60
2008,01,22,13,08,3.60
2008,01,22,13,09,3.60
2008,01,22,13,10,3.60
2008,01,22,13,11,3.60
2008,01,22,13,12,3.60
2008,01,22,13,13,3.70
2008,01,22,13,14,3.70
2008,01,22,13,15,3.70
2008,01,22,13,16,3.80
2008,01,22,13,17,3.80
2008,01,22,13,18,3.70
2008,01,22,13,19,3.70
2008,01,22,13,20,3.70
2008,01,22,13,21,3.70
2008,01,22,13,22,3.70
2008,01,22,13,23,3.70
2008,01,22,13,24,3.80
2008,01,22,13,25,3.80
2008,01,22,13,26,3.80
2008,01,22,13,27,3.80
2008,01,22,13,28,3.80
2008,01,22,13,29,3.80
2008,01,22,13,30,3.80
2008,01,22,13,31,3.80
2008,01,22,13,32,3.80
2008,01,22,13,33,3.80
2008,01,22,13,34,3.90
2008,01,22,13,35,3.90
2008,01,22,13,36,3.90
2008,01,22,13,37,3.90
2008,01,22,13,38,3.90
2008,01,22,13,39,3.90
2008,01,22,13,40,3.90
2008,01,22,13,41,3.80
2008,01,22,13,42,3.80
2008,01,22,13,43,3.80
2008,01,22,13,44,3.80
2008,01,22,13,45,3.80
2008,01,22,13,46,3.80
2008,01,22,13,47,3.80
2008,01,22,13,48,3.80
2008,01,22,13,49,3.70
2008,01,22,13,50,3.70
2008,01,22,13,51,3.60
2008,01,22,13,52,3.60
2008,01,22,13,53,3.60
2008,01,22,13,54,3.60
2008,01,22,13,55,3.60
2008,01,22,13,56,3.60
2008,01,22,13,57,3.50
2008,01,22,13,58,3.50
2008,01,22,13,59,3.50
2008,01,22,14,00,3.50
2008,01,22,14,01,3.50
2008,01,22,14,02,3.50
2008,01,22,14,03,3.50
2008,01,22,14,04,3.40
2008,01,22,14,05,3.40
2008,01,22,14,06,3.30
2008,01,22,14,07,3.30
2008,01,22,14,08,3.30
2008,01,22,14,09,3.40
2008,01,22,14,10,3.50
2008,01,22,14,11,3.50
2008,01,22,14,12,3.60
2008,01,22,14,13,3.60
2008,01,22,14,14,3.50
2008,01,22,14,15,3.50
2008,01,22,14,16,3.50
2008,01,22,14,17,3.50
2008,01,22,14,18,3.60
2008,01,22,14,19,3.60
2008,01,22,14,20,3.60
2008,01,22,14,21,3.60
2008,01,22,14,22,3.50
2008,01,22,14,23,3.50
2008,01,22,14,24,3.50
2008,01,22,14,25,3.50
2008,01,22,14,26,3.50
2008,01,22,14,27,3.60
2008,01,22,14,28,3.60
2008,01,22,14,29,3.70
2008,01,22,14,30,3.70
2008,01,22,14,31,3.70
2008,01,22,14,32,3.70
2008,01,22,14,33,3.60
2008,01,22,14,34,3.60
2008,01,22,14,35,3.50
2008,01,22,14,36,3.50
2008,01,22,14,37,3.50
2008,01,22,14,38,3.60
2008,01,22,14,39,3.60
2008,01,22,14,40,3.70
2008,01,22,14,41,3.80
2008,01,22,14,42,3.80
2008,01,22,14,43,3.80
2008,01,22,14,44,3.90
2008,01,22,14,45,3.90
2008,01,22,14,46,3.90
2008,01,22,14,47,3.90
2008,01,22,14,48,3.90
2008,01,22,14,49,3.90
2008,01,22,14,50,3.90
2008,01,22,14,51,3.90
2008,01,22,14,52,3.90
2008,01,22,14,53,3.90
2008,01,22,14,54,3.90
2008,01,22,14,55,3.90
2008,01,22,14,56,3.90
2008,01,22,14,57,3.80
2008,01,22,14,58,3.80
2008,01,22,14,59,3.80
2008,01,22,15,00,3.70
2008,01,22,15,01,3.70
2008,01,22,15,02,3.60
2008,01,22,15,03,3.50
2008,01,22,15,04,3.50
2008,01,22,15,05,3.50
2008,01,22,15,06,3.50
2008,01,22,15,07,3.40
2008,01,22,15,08,3.40
2008,01,22,15,09,3.40
2008,01,22,15,10,3.40
2008,01,22,15,11,3.30
2008,01,22,15,12,3.30
2008,01,22,15,13,3.30
2008,01,22,15,14,3.30
2008,01,22,15,15,3.30
2008,01,22,15,16,3.30
2008,01,22,15,17,3.30
2008,01,22,15,18,3.30
2008,01,22,15,19,3.30
2008,01,22,15,20,3.30
2008,01,22,15,21,3.30
2008,01,22,15,22,3.30
2008,01,22,15,23,3.30
2008,01,22,15,24,3.30
2008,01,22,15,25,3.30
2008,01,22,15,26,3.40
2008,01,22,15,27,3.40
2008,01,22,15,28,3.40
2008,01,22,15,29,3.40
2008,01,22,15,30,3.40
2008,01,22,15,31,3.40
2008,01,22,15,32,3.40
2008,01,22,15,33,3.40
2008,01,22,15,34,3.50
2008,01,22,15,35,3.50
2008,01,22,15,36,3.50
2008,01,22,15,37,3.50
2008,01,22,15,38,3.50
2008,01,22,15,39,3.50
2008,01,22,15,40,3.40
2008,01,22,15,41,3.50
2008,01,22,15,42,3.50
2008,01,22,15,43,3.50
2008,01,22,15,44,3.50
2008,01,22,15,45,3.50
2008,01,22,15,46,3.50
2008,01,22,15,47,3.50
2008,01,22,15,48,3.50
2008,01,22,15,49,3.50
2008,01,22,15,50,3.50
2008,01,22,15,51,3.60
2008,01,22,15,52,3.60
2008,01,22,15,53,3.50
2008,01,22,15,54,3.50
2008,01,22,15,55,3.60
2008,01,22,15,56,3.60
2008,01,22,15,57,3.60
2008,01,22,15,58,3.70
2008,01,22,15,59,3.70
2008,01,22,16,00,3.70
2008,01,22,16,01,3.70
2008,01,22,16,02,3.70
2008,01,22,16,03,3.70
2008,01,22,16,04,3.70
2008,01,22,16,05,3.70
2008,01,22,16,06,3.70
2008,01,22,16,07,3.80
2008,01,22,16,08,3.80
2008,01,22,16,09,3.80
2008,01,22,16,10,3.70
2008,01,22,16,11,3.70
2008,01,22,16,12,3.70
2008,01,22,16,13,3.60
2008,01,22,16,14,3.50
2008,01,22,16,15,3.50
2008,01,22,16,16,3.50
2008,01,22,16,17,3.50
2008,01,22,16,18,3.50
2008,01,22,16,19,3.50
2008,01,22,16,20,3.40
2008,01,22,16,21,3.40
2008,01,22,16,22,3.40
2008,01,22,16,23,3.30
2008,01,22,16,24,3.30
2008,01,22,16,25,3.30
2008,01,22,16,26,3.30
2008,01,22,16,27,3.30
2008,01,22,16,28,3.30
2008,01,22,16,29,3.30
2008,01,22,16,30,3.30
2008,01,22,16,31,3.30
2008,01,22,16,32,3.20
2008,01,22,16,33,3.20
2008,01,22,16,34,3.20
2008,01,22,16,35,3.20
2008,01,22,16,36,3.20
2008,01,22,16,37,3.10
2008,01,22,16,38,3.10
2008,01,22,16,39,3.10
2008,01,22,16,40,3.10
2008,01,22,16,41,3.10
2008,01,22,16,42,3.10
2008,01,22,16,43,3.10
2008,01,22,16,44,3.00
2008,01,22,16,45,2.90
2008,01,22,16,46,2.90
2008,01,22,16,47,2.90
2008,01,22,16,48,2.90
2008,01,22,16,49,2.90
2008,01,22,16,50,2.90
2008,01,22,16,51,2.90
2008,01,22,16,52,2.90
2008,01,22,16,53,2.90
2008,01,22,16,54,2.90
2008,01,22,16,55,2.80
2008,01,22,16,56,2.80
2008,01,22,16,57,2.80
2008,01,22,16,58,2.80
2008,01,22,16,59,2.70
2008,01,22,17,00,2.70
2008,01,22,17,01,2.70
2008,01,22,17,02,2.70
2008,01,22,17,03,2.70
2008,01,22,17,04,2.70
2008,01,22,17,05,2.70
2008,01,22,17,06,2.70
2008,01,22,17,07,2.70
2008,01,22,17,08,2.70
2008,01,22,17,09,2.60
2008,01,22,17,10,2.60
2008,01,22,17,11,2.60
2008,01,22,17,12,2.60
2008,01,22,17,13,2.50
2008,01,22,17,14,2.50
2008,01,22,17,15,2.50
2008,01,22,17,16,2.50
2008,01,22,17,17,2.50
2008,01,22,17,18,2.40
2008,01,22,17,19,2.40
2008,01,22,17,20,2.40
2008,01,22,17,21,2.40
2008,01,22,17,22,2.30
2008,01,22,17,23,2.30
2008,01,22,17,24,2.30
2008,01,22,17,25,2.20
2008,01,22,17,26,2.20
2008,01,22,17,27,2.20
2008,01,22,17,28,2.20
2008,01,22,17,29,2.20
2008,01,22,17,30,2.20
2008,01,22,17,31,2.10
2008,01,22,17,32,2.10
2008,01,22,17,33,2.10
2008,01,22,17,34,2.10
2008,01,22,17,35,2.00
2008,01,22,17,36,2.00
2008,01,22,17,37,1.90
2008,01,22,17,38,1.90
2008,01,22,17,39,1.90
2008,01,22,17,40,1.90
2008,01,22,17,41,1.90